EW1181 Weather Reports


time (UTC)temp
C
wind
direction
speed
KPH
gust
KPH
rain 1hr
cm
rain 24hr
cm
rain mn
cm
humidity
%
barometer
mb
20260505114017 12 315 11.3 19.3 0.00 0.00 0.00 71 1017.7
20260505113018 12 315 12.9 20.9 0.00 0.00 0.00 72 1017.8
20260505112039 12 248 11.3 20.9 0.00 0.00 0.00 72 1017.8
20260505111040 11 248 12.9 19.3 0.00 0.00 0.00 71 1017.9
20260505102018 11 248 12.9 27.4 0.00 0.00 0.00 74 1018.1
20260505101017 11 248 9.7 20.9 0.00 0.00 0.00 73 1018.1
20260505100017 11 225 11.3 22.5 0.00 0.00 0.00 76 1018.1
20260505095016 11 248 12.9 22.5 0.00 0.00 0.00 76 1018.1
20260505094016 11 248 8.0 19.3 0.00 0.00 0.00 79 1018.2
20260505093016 11 225 9.7 17.7 0.00 0.00 0.00 80 1018.2
20260505092039 11 225 6.4 12.9 0.00 0.00 0.00 82 1018.2
20260505091016 10 225 8.0 16.1 0.00 0.00 0.00 83 1018.2
20260505090016 10 225 8.0 16.1 0.00 0.00 0.00 83 1018.2
20260505085018 10 248 9.7 16.1 0.00 0.00 0.00 85 1018.2
20260505084016 10 248 11.3 17.7 0.00 0.00 0.00 84 1018.2
20260505083101 10 225 8.0 17.7 0.00 0.00 0.00 85 1018.3
20260505082018 10 225 8.0 16.1 0.00 0.00 0.00 86 1018.3
20260505081017 10 203 4.8 11.3 0.00 0.00 0.00 87 1018.3
20260505080016 10 225 6.4 12.9 0.00 0.00 0.00 88 1018.3
20260505075019 9 225 6.4 14.5 0.00 0.00 0.00 87 1018.3
20260505074016 9 225 4.8 12.9 0.00 0.00 0.00 87 1018.3
20260505073038 9 203 3.2 14.5 0.00 0.00 0.00 89 1018.2
20260505072037 9 203 3.2 11.3 0.00 0.00 0.00 90 1018.2
20260505071036 9 203 4.8 14.5 0.00 0.00 0.00 90 1018.2
20260505070016 8 225 6.4 16.1 0.00 0.00 0.00 91 1018.3
20260505065036 8 225 6.4 11.3 0.00 0.00 0.00 92 1018.2
20260505064038 8 225 4.8 11.3 0.00 0.00 0.00 92 1018.3
20260505063016 8 225 4.8 12.9 0.00 0.00 0.00 93 1018.2
20260505062036 8 225 6.4 12.9 0.00 0.00 0.00 93 1018.2
20260505061016 8 225 8.0 14.5 0.00 0.00 0.00 92 1018.2
20260505060016 7 225 8.0 14.5 0.00 0.00 0.00 92 1018.2
20260505055016 7 225 6.4 12.9 0.00 0.00 0.00 92 1018.2
20260505054016 7 225 4.8 9.7 0.00 0.00 0.00 91 1018.2
20260505053016 7 225 8.0 14.5 0.00 0.00 0.00 91 1018.3
20260505052016 7 225 3.2 12.9 0.00 0.00 0.00 91 1018.2
20260505051057 7 0.0 4.8 0.00 0.00 0.00 91 1018.2
20260505041016 7 0.0 3.2 0.00 0.00 0.00 90 1017.9
20260505040036 7 0.0 3.2 0.00 0.00 0.00 89 1017.9
20260505035016 7 0.0 1.6 0.00 0.00 0.00 89 1017.9
20260505034016 7 68 1.6 3.2 0.00 0.00 0.00 89 1017.9
20260505033016 7 113 1.6 4.8 0.00 0.00 0.00 89 1018.0
20260505032038 7 158 1.6 4.8 0.00 0.00 0.00 90 1018.1
20260505031016 7 0 1.6 6.4 0.00 0.00 0.00 90 1018.0
20260505030036 7 0.0 0.0 0.00 0.00 0.00 89 1018.0
20260505025016 7 0.0 3.2 0.00 0.00 0.00 88 1018.0
20260505024016 8 0.0 3.2 0.00 0.00 0.00 86 1018.1
20260505023016 8 0.0 4.8 0.00 0.00 0.00 86 1018.1
20260505022116 8 225 1.6 6.4 0.00 0.00 0.00 85 1018.1
20260505021016 8 0.0 1.6 0.00 0.00 0.00 86 1018.2
20260505020016 8 0.0 1.6 0.00 0.00 0.00 86 1018.1
20260505015016 8 0.0 4.8 0.00 0.00 0.00 88 1018.2
20260505014016 8 0.0 3.2 0.00 0.00 0.00 89 1018.1
20260505013016 8 203 1.6 4.8 0.00 0.00 0.00 90 1018.2
20260505012017 8 225 3.2 8.0 0.00 0.00 0.00 89 1018.2
20260505011015 8 225 4.8 9.7 0.00 0.00 0.00 89 1018.1
20260505010017 8 248 4.8 9.7 0.00 0.00 0.00 90 1018.2
20260505005016 8 270 1.6 8.0 0.00 0.00 0.00 91 1018.2
20260505004036 8 0.0 3.2 0.00 0.00 0.00 92 1018.2
20260505003017 8 248 3.2 4.8 0.00 0.00 0.00 93 1018.2
20260505002037 9 225 1.6 4.8 0.00 0.00 0.00 93 1018.2
20260505001036 10 225 3.2 8.0 0.00 0.00 0.00 91 1018.3
20260505000016 10 315 3.2 8.0 0.00 0.00 0.00 91 1018.2
20260504235015 10 0.0 3.2 0.00 0.00 0.00 93 1018.4
20260504234015 10 0.0 1.6 0.00 0.00 0.00 93 1018.3
20260504233016 10 0.0 3.2 0.00 0.00 0.00 92 1018.3
20260504232015 10 0.0 3.2 0.00 0.00 0.00 92 1018.2
20260504231015 11 225 3.2 11.3 0.00 0.00 0.00 92 1018.2
20260504230015 11 225 8.0 14.5 0.00 0.00 0.00 92 1018.2
20260504225017 11 225 6.4 14.5 0.00 0.00 0.00 92 1018.1
20260504224021 11 225 4.8 11.3 0.00 0.00 0.00 92 1018.2
20260504223016 11 203 4.8 9.7 0.00 0.00 0.00 92 1018.3
20260504222016 11 203 4.8 9.7 0.00 0.00 0.00 92 1018.4
20260504221016 11 203 4.8 11.3 0.00 0.00 0.00 91 1018.4
20260504220016 11 203 4.8 9.7 0.00 0.00 0.00 91 1018.3
20260504215036 11 203 3.2 9.7 0.00 0.00 0.00 91 1018.3
20260504214016 11 203 3.2 9.7 0.00 0.00 0.00 91 1018.4
20260504213016 11 203 3.2 11.3 0.00 0.00 0.00 90 1018.4
20260504212016 11 203 1.6 6.4 0.00 0.00 0.00 90 1018.4
20260504211017 11 0.0 0.0 0.00 0.00 0.00 91 1018.3
20260504210016 12 0.0 0.0 0.00 0.00 0.00 91 1018.4
20260504205036 12 0.0 1.6 0.00 0.00 0.00 90 1018.3
20260504204037 12 0.0 3.2 0.00 0.00 0.00 90 1018.2
20260504203016 12 225 1.6 4.8 0.00 0.00 0.00 89 1018.2
20260504202039 12 0.0 1.6 0.00 0.00 0.00 89 1018.0
20260504201015 12 0.0 1.6 0.00 0.00 0.00 88 1018.0
20260504200016 12 225 1.6 6.4 0.00 0.00 0.00 87 1018.0
20260504195016 12 225 4.8 8.0 0.00 0.00 0.00 88 1017.9
20260504194016 12 225 3.2 9.7 0.00 0.00 0.00 87 1017.9
20260504193016 12 225 3.2 8.0 0.00 0.00 0.00 88 1017.8
20260504192016 12 203 1.6 6.4 0.00 0.00 0.00 89 1017.7
20260504191015 12 0.0 3.2 0.00 0.00 0.00 90 1017.7
20260504190017 13 0.0 0.0 0.00 0.00 0.00 90 1017.6
20260504185016 12 0.0 0.0 0.00 0.00 0.00 91 1017.6
20260504184040 12 0.0 0.0 0.00 0.00 0.00 92 1017.6
20260504183016 12 0.0 0.0 0.00 0.00 0.00 91 1017.7
20260504182017 12 0.0 1.6 0.00 0.00 0.00 91 1017.6
20260504181037 12 0.0 1.6 0.00 0.00 0.00 91 1017.6
20260504180016 12 0.0 3.2 0.00 0.00 0.00 91 1017.5
20260504175015 12 338 1.6 3.2 0.00 0.00 0.00 91 1017.5
20260504174017 12 338 1.6 8.0 0.00 0.00 0.00 91 1017.5
20260504173018 12 315 4.8 9.7 0.00 0.00 0.00 91 1017.6
20260504172117 12 315 4.8 11.3 0.00 0.03 0.00 90 1017.6
20260504171017 12 293 4.8 9.7 0.00 0.03 0.00 89 1017.5
20260504151017 13 315 1.6 8.0 0.00 0.03 0.00 84 1017.3
20260504141021 14 315 4.8 9.7 0.00 0.03 0.00 81 1017.4